GORIZONT 17 [-]

Last updated on Tue Jun 27 2023 00:03:00 GMT+0000 (Coordinated Universal Time)

1 19765U 89004A 23177.40629109 -.00000059 00000+0 00000+0 0 9993 2 19765 13.4888 340.8297 0024684 139.9363 213.4377 0.99064474124808

Satellite not in orbit

GORIZONT 17 [-]